TimeEDT,TemperatureF,Dew PointF,Humidity,Sea Level PressureIn,VisibilityMPH,Wind Direction,Wind SpeedMPH,Gust SpeedMPH,PrecipitationIn,Events,Conditions,WindDirDegrees,DateUTC
12:51 AM,53.1,51.1,93,30.02,-9999.0,SE,11.5,-,N/A,,Unknown,130,2012-10-24 04:51:00
1:51 AM,53.1,51.1,93,30.02,-9999.0,SE,9.2,-,N/A,,Unknown,130,2012-10-24 05:51:00
2:51 AM,53.1,52.0,96,30.01,-9999.0,SE,9.2,-,N/A,,Unknown,130,2012-10-24 06:51:00
3:51 AM,53.1,52.0,96,30.01,-9999.0,SE,9.2,-,N/A,,Unknown,130,2012-10-24 07:51:00
4:51 AM,53.1,52.0,96,30.01,-9999.0,SE,8.1,-,N/A,,Unknown,140,2012-10-24 08:51:00
5:51 AM,54.0,52.0,93,30.01,-9999.0,SE,8.1,-,N/A,,Unknown,140,2012-10-24 09:51:00
6:51 AM,54.0,52.0,93,30.01,-9999.0,SE,5.8,-,N/A,,Unknown,140,2012-10-24 10:51:00
7:51 AM,54.0,52.0,93,30.00,-9999.0,SSE,8.1,-,0.21,,Unknown,150,2012-10-24 11:51:00
8:51 AM,55.0,53.1,93,30.02,-9999.0,SSE,4.6,-,0.01,,Unknown,150,2012-10-24 12:51:00
9:51 AM,57.0,55.0,93,30.02,-9999.0,Calm,Calm,-,N/A,,Unknown,0,2012-10-24 13:51:00
10:51 AM,59.0,55.9,90,30.00,-9999.0,SSE,3.5,-,N/A,,Unknown,150,2012-10-24 14:51:00
11:51 AM,61.0,57.0,87,29.99,-9999.0,South,4.6,-,N/A,,Unknown,180,2012-10-24 15:51:00
12:51 PM,64.9,60.1,84,29.99,-9999.0,Variable,4.6,-,N/A,,Unknown,0,2012-10-24 16:51:00
1:51 PM,57.9,55.9,93,29.98,-9999.0,ESE,12.7,-,N/A,,Unknown,110,2012-10-24 17:51:00
2:51 PM,59.0,57.0,93,29.97,-9999.0,ESE,16.1,-,N/A,,Unknown,110,2012-10-24 18:51:00
3:51 PM,57.9,55.9,93,29.97,-9999.0,ESE,13.8,-,N/A,,Unknown,120,2012-10-24 19:51:00
4:51 PM,59.0,55.9,90,29.96,-9999.0,SSE,8.1,-,N/A,,Unknown,150,2012-10-24 20:51:00
5:51 PM,61.0,55.9,83,29.96,-9999.0,SE,5.8,-,N/A,,Unknown,140,2012-10-24 21:51:00
6:51 PM,60.1,55.9,86,29.97,-9999.0,SE,6.9,-,N/A,,Unknown,140,2012-10-24 22:51:00
7:51 PM,59.0,55.9,90,29.98,-9999.0,SE,10.4,-,N/A,,Unknown,130,2012-10-24 23:51:00
8:51 PM,59.0,55.9,90,29.98,-9999.0,SE,9.2,-,N/A,,Unknown,140,2012-10-25 00:51:00
9:51 PM,57.9,55.0,90,29.96,-9999.0,SE,8.1,-,N/A,,Unknown,140,2012-10-25 01:51:00
10:51 PM,57.9,55.0,90,29.95,-9999.0,SE,6.9,-,N/A,,Unknown,140,2012-10-25 02:51:00
11:51 PM,59.0,55.9,90,29.94,-9999.0,SSE,5.8,-,N/A,,Unknown,160,2012-10-25 03:51:00